Location: Mason Neck State Park
(38.6428°N, 77.1981°W)
Time: 00:49:27
(UTC-04:00)

Cosmos 2278 Rocket - Visible Passes

Search period start: 20 August 2014 00:00
Search period end: 30 August 2014 00:00
Orbit: 840 x 847 km, 71.0° (Epoch: 19 August)

Date Brightness Start Highest point End Pass type
(mag) Time Alt. Az. Time Alt. Az. Time Alt. Az.
20 Aug 3.9 00:27:14 29° NNW 00:27:14 29° NNW 00:30:58 10° N visible
20 Aug 4.0 22:30:46 18° NE 22:30:46 18° NE 22:32:24 10° NE visible
21 Aug 3.8 00:12:35 31° NW 00:12:35 31° NW 00:16:33 10° N visible
21 Aug 3.9 22:16:01 19° ENE 22:16:01 19° ENE 22:17:53 10° NE visible
21 Aug 3.7 23:57:49 33° NW 23:57:49 33° NW 00:02:07 10° N visible
22 Aug 3.7 22:01:09 21° ENE 22:01:09 21° ENE 22:03:22 10° NE visible
22 Aug 3.5 23:42:56 36° NW 23:42:56 36° NW 23:47:41 10° N visible
23 Aug 3.5 21:46:05 23° ENE 21:46:05 23° ENE 21:48:51 10° NE visible
23 Aug 3.4 23:27:51 38° WNW 23:27:58 38° WNW 23:33:15 10° N visible
24 Aug 3.3 21:30:43 25° E 21:30:43 25° E 21:34:19 10° NE visible
24 Aug 3.3 23:12:27 36° W 23:13:30 40° WNW 23:18:49 10° N visible
25 Aug 3.1 21:14:47 26° ESE 21:15:13 26° ESE 21:19:48 10° NE visible
25 Aug 3.3 22:56:28 27° WSW 22:59:01 41° WNW 23:04:23 10° N visible
26 Aug 5.4 06:07:41 10° NNE 06:09:26 11° NE 06:11:11 10° ENE visible
26 Aug 3.2 20:56:57 13° SSE 21:00:46 25° ESE 21:05:16 10° NE visible
26 Aug 3.2 22:39:11 10° SW 22:44:33 43° WNW 22:49:57 10° N visible
27 Aug 5.5 05:53:31 10° NNE 05:54:56 11° NE 05:56:20 10° ENE visible
27 Aug 3.2 20:41:57 10° SSE 20:46:20 24° E 20:50:44 10° NE visible
27 Aug 3.2 22:24:40 10° SW 22:30:04 45° WNW 22:35:30 10° N visible
28 Aug 5.6 05:39:29 10° NE 05:40:25 10° NE 05:41:21 10° NE visible
28 Aug 3.3 20:27:36 10° SSE 20:31:53 23° E 20:36:11 10° NE visible
28 Aug 3.1 22:10:10 10° SW 22:15:36 47° WNW 22:21:04 10° N visible
29 Aug 3.3 20:13:16 10° SSE 20:17:27 22° E 20:21:38 10° NE visible
29 Aug 3.1 21:55:39 10° SW 22:01:07 49° WNW 22:06:37 10° NNE visible
